Russellville, AR

1:39 PM CST on December 14, 2019 (GMT -0600)
Russellville Regional

Weather History for KRUE - November, 2019

Change the Weather History Date:

Tuesday, November 12, 2019

  Actual Average (KHOT) Record (KHOT)
Temperature  
Mean Temperature 27 °F -  
Max Temperature 35 °F 64 °F 83 °F (1955)
Min Temperature 19 °F 39 °F 23 °F (1976)
Degree Days  
Heating Degree Days 38    
Moisture  
Dew Point 10 °F    
Average Humidity 56    
Maximum Humidity 81    
Minimum Humidity 31    
Precipitation  
Precipitation 0.00 in - - ()
Sea Level Pressure  
Sea Level Pressure 30.54 in    
Wind  
Wind Speed 7 mph (North)    
Max Wind Speed 14 mph    
Max Gust Speed 20 mph    
Visibility 10 miles    
Events      
Averages and records for this station are not official NWS values.
T = Trace of Precipitation, MM = Missing Value Source: NWS Daily Summary

Daily Weather History Graph

Daily Weather History Graph

Search for Another Location

Airport or City:

Astronomy

Nov. 12, 2019 Rise Set
Actual Time 6:44 AM CST 5:08 PM CST
Civil Twilight 6:17 AM CST 5:35 PM CST
Nautical Twilight 5:46 AM CST 6:05 PM CST
Astronomical Twilight 5:16 AM CST 6:35 PM CST
Moon 5:34 PM CST (11/12) 6:38 AM CST (11/12)
Length of Visible Light 11h 17m
Length of Day
10h 24m
Full, 100% of the Moon is Illuminated
Nov 12
Full
Nov 19
Last Quarter
Nov 26
New
Dec 4
First Quarter
Dec 11
Full

Hourly Weather History & Observations

Time (CST) Temp. Windchill Dew Point Humidity Pressure Visibility Wind Dir Wind Speed Gust Speed Precip Events Conditions
12:53 AM 24.1 °F 14.4 °F 12.9 °F 62% 30.54 in 10.0 mi NNW 9.2 mph 18.4 mph N/A   Clear
1:53 AM 23.0 °F 10.6 °F 10.9 °F 60% 30.55 in 10.0 mi NNW 13.8 mph 19.6 mph N/A   Clear
2:53 AM 21.9 °F 10.4 °F 9.0 °F 58% 30.56 in 10.0 mi North 11.5 mph - N/A   Clear
3:53 AM 21.0 °F 11.4 °F 9.0 °F 60% 30.57 in 10.0 mi NNW 8.1 mph - N/A   Clear
4:53 AM 19.9 °F 10.1 °F 9.0 °F 62% 30.59 in 10.0 mi North 8.1 mph - N/A   Clear
5:53 AM 19.0 °F 12.3 °F 9.0 °F 65% 30.59 in 10.0 mi North 4.6 mph - N/A   Clear
6:53 AM 19.0 °F 12.3 °F 10.0 °F 68% 30.61 in 10.0 mi North 4.6 mph - N/A   Clear
7:53 AM 21.0 °F 11.4 °F 8.1 °F 57% 30.64 in 10.0 mi NNW 8.1 mph - N/A   Clear
8:53 AM 23.0 °F 11.7 °F 7.0 °F 50% 30.65 in 10.0 mi North 11.5 mph - N/A   Clear
9:53 AM 25.0 °F 14.2 °F 7.0 °F 46% 30.66 in 10.0 mi North 11.5 mph - N/A   Clear
10:53 AM 28.0 °F 19.3 °F 7.0 °F 41% 30.64 in 10.0 mi North 9.2 mph 18.4 mph N/A   Clear
11:53 AM 30.0 °F 20.5 °F 8.1 °F 40% 30.60 in 10.0 mi NNE 11.5 mph - N/A   Clear
12:53 PM 32.0 °F 24.8 °F 8.1 °F 37% 30.56 in 10.0 mi NNW 8.1 mph - N/A   Clear
1:53 PM 33.1 °F 27.7 °F 6.1 °F 32% 30.53 in 10.0 mi Variable 5.8 mph - N/A   Clear
2:53 PM 35.1 °F - 7.0 °F 31% 30.50 in 10.0 mi Calm Calm - N/A   Clear
3:53 PM 34.0 °F - 6.1 °F 31% 30.48 in 10.0 mi Calm Calm - N/A   Clear
4:53 PM 34.0 °F - 7.0 °F 32% 30.48 in 10.0 mi Calm Calm - N/A   Clear
5:53 PM 27.0 °F - 16.0 °F 63% 30.48 in 10.0 mi Calm Calm - N/A   Clear
6:53 PM 25.0 °F - 17.1 °F 72% 30.49 in 10.0 mi Calm Calm - N/A   Clear
7:53 PM 24.1 °F 19.7 °F 16.0 °F 71% 30.49 in 10.0 mi East 3.5 mph - N/A   Clear
8:53 PM 25.0 °F - 14.0 °F 63% 30.48 in 10.0 mi Calm Calm - N/A   Clear
9:53 PM 21.9 °F - 15.1 °F 75% 30.49 in 10.0 mi Calm Calm - N/A   Clear
10:53 PM 21.0 °F - 16.0 °F 81% 30.45 in 10.0 mi Calm Calm - N/A   Clear
11:53 PM 19.9 °F - 15.1 °F 81% 30.41 in 10.0 mi Calm Calm - N/A   Clear